{"data":{"norad_id":66582,"intl_designator":"2025-268AB","name":"STARLINK-35746","alt_names":[],"object_type":"PAYLOAD","status":"ACTIVE","operator":null,"country":"US","launch_date":"2025-11-21","launch_site_code":"AFETR","launch_vehicle":null,"mission":null,"orbit_class":"UNKNOWN","rcs_meters":null,"size_class":null,"mass_kg":null,"dimensions":null,"purposes":["comms"],"wikipedia_slug":null,"has_3d_model":false,"image_url":null,"decayed_at":null,"tle_current":{"epoch":"2026-09-20T11:32:12.119712Z","epoch_age_seconds":88418,"freshness":"FRESH","line1":"1 66582U 25268AB  26263.48069583  .00018618  00000+0  68423-3 0  9991","line2":"2 66582  43.0041 326.7134 0001685 279.0271  81.0390 15.27586793 47752","mean_motion":15.27586793,"eccentricity":0.0001685,"inclination_deg":43.0041,"raan_deg":326.7134,"arg_perigee_deg":279.0271,"mean_anomaly_deg":81.039,"bstar":0.00068423,"rev_number":4775,"period_min":94.266329520433,"perigee_km":481.87264899947,"apogee_km":484.18486185905,"semimajor_km":6861.1657554293,"source":"CELESTRAK","updated_at":"2026-09-21T09:00:35.974799Z"}}}